When you browse on this site, cookies collect data to enhance your experience and personalize the content and advertising you see.
Visit our Privacy Policy to learn more. By continuing to use the site, you agree to this use of cookies and data.
  • In Italy
  • List of Countries
  • For 7 days
  • Water Temperature
  • Satellite Maps
  • Weather Map
  • Weather Widgets
  • user-avatar
    Login

    Hourly Weather Mazari Sharif

    Today, 18 June, Tuesday

    Time Temperature Precipitation Wind Pressure Humidity
    00:00 +22°C° 0 mm 1 mps 652 mmHg 18%
    01:00 +22°C° 0 mm 1 mps 651 mmHg 18%
    02:00 +21°C° 0 mm 1 mps 651 mmHg 18%
    03:00 +21°C° 0 mm 1 mps 651 mmHg 19%
    04:00 +19°C° 0 mm 2 mps 651 mmHg 18%
    05:00 +21°C° 0 mm 2 mps 652 mmHg 16%
    06:00 +24°C° 0 mm 2 mps 653 mmHg 15%
    07:00 +26°C° 0 mm 2 mps 653 mmHg 13%
    08:00 +27°C° 0 mm 3 mps 654 mmHg 13%
    09:00 +28°C° 0 mm 3 mps 654 mmHg 13%
    10:00 +29°C° 0 mm 4 mps 654 mmHg 12%
    11:00 +30°C° 0 mm 4 mps 654 mmHg 12%
    12:00 +30°C° 0 mm 4 mps 654 mmHg 12%
    13:00 +32°C° 0 mm 5 mps 653 mmHg 12%
    14:00 +32°C° 0 mm 5 mps 653 mmHg 12%
    15:00 +32°C° 0 mm 5 mps 653 mmHg 11%
    16:00 +32°C° 0 mm 4 mps 653 mmHg 11%
    17:00 +30°C° 0 mm 4 mps 653 mmHg 12%
    18:00 +28°C° 0 mm 3 mps 652 mmHg 13%
    19:00 +27°C° 0 mm 2 mps 652 mmHg 14%
    20:00 +26°C° 0 mm 2 mps 652 mmHg 15%
    21:00 +25°C° 0 mm 2 mps 652 mmHg 15%
    22:00 +24°C° 0 mm 2 mps 652 mmHg 16%
    23:00 +24°C° 0 mm 2 mps 652 mmHg 17%

    Tomorrow, 19 June, Wednesday

    Time Temperature Precipitation Wind Pressure Humidity
    00:00 +23°C° 0 mm 2 mps 651 mmHg 18%
    01:00 +23°C° 0 mm 2 mps 651 mmHg 18%
    02:00 +21°C° 0 mm 2 mps 651 mmHg 19%
    03:00 +21°C° 0 mm 2 mps 651 mmHg 20%
    04:00 +21°C° 0 mm 2 mps 650 mmHg 21%
    05:00 +23°C° 0 mm 2 mps 651 mmHg 19%
    06:00 +25°C° 0 mm 2 mps 652 mmHg 17%
    07:00 +27°C° 0 mm 2 mps 652 mmHg 15%
    08:00 +28°C° 0 mm 3 mps 652 mmHg 15%
    09:00 +29°C° 0 mm 3 mps 653 mmHg 14%
    10:00 +30°C° 0 mm 4 mps 653 mmHg 14%
    11:00 +32°C° 0 mm 4 mps 653 mmHg 13%
    12:00 +32°C° 0 mm 4 mps 653 mmHg 13%
    13:00 +33°C° 0 mm 5 mps 652 mmHg 12%
    14:00 +33°C° 0 mm 5 mps 652 mmHg 12%
    15:00 +33°C° 0 mm 5 mps 652 mmHg 12%
    16:00 +33°C° 0 mm 5 mps 652 mmHg 11%
    17:00 +32°C° 0 mm 4 mps 652 mmHg 12%
    18:00 +29°C° 0 mm 4 mps 652 mmHg 13%
    19:00 +28°C° 0 mm 3 mps 652 mmHg 14%
    20:00 +27°C° 0 mm 3 mps 652 mmHg 17%
    21:00 +26°C° 0 mm 3 mps 652 mmHg 19%
    22:00 +25°C° 0 mm 3 mps 652 mmHg 21%
    23:00 +24°C° 0 mm 3 mps 652 mmHg 23%

    Day after tomorrow, 20 June, Thursday

    Time Temperature Precipitation Wind Pressure Humidity
    00:00 +22°C° 0 mm 3 mps 651 mmHg 25%
    01:00 +22°C° 0 mm 3 mps 651 mmHg 27%
    02:00 +21°C° 0 mm 3 mps 651 mmHg 28%
    03:00 +21°C° 0 mm 3 mps 651 mmHg 29%
    04:00 +20°C° 0 mm 3 mps 651 mmHg 30%
    05:00 +22°C° 0 mm 3 mps 652 mmHg 27%
    06:00 +24°C° 0 mm 3 mps 652 mmHg 24%
    07:00 +26°C° 0 mm 3 mps 653 mmHg 22%
    08:00 +27°C° 0 mm 3 mps 653 mmHg 20%
    09:00 +28°C° 0 mm 3 mps 654 mmHg 19%
    10:00 +29°C° 0 mm 3 mps 654 mmHg 18%
    11:00 +30°C° 0 mm 4 mps 654 mmHg 16%
    12:00 +32°C° 0 mm 4 mps 654 mmHg 15%
    13:00 +33°C° 0 mm 5 mps 653 mmHg 14%
    14:00 +33°C° 0 mm 5 mps 653 mmHg 13%
    15:00 +33°C° 0 mm 5 mps 653 mmHg 13%
    16:00 +33°C° 0 mm 5 mps 653 mmHg 13%
    17:00 +30°C° 0 mm 4 mps 653 mmHg 13%
    18:00 +29°C° 0 mm 3 mps 653 mmHg 14%
    19:00 +28°C° 0 mm 3 mps 653 mmHg 15%
    20:00 +27°C° 0 mm 2 mps 653 mmHg 15%
    21:00 +26°C° 0 mm 2 mps 653 mmHg 16%
    22:00 +25°C° 0 mm 2 mps 653 mmHg 17%
    23:00 +25°C° 0 mm 2 mps 652 mmHg 18%

    21 June, Friday

    Time Temperature Precipitation Wind Pressure Humidity
    00:00 +24°C° 0 mm 2 mps 652 mmHg 18%
    01:00 +23°C° 0 mm 2 mps 652 mmHg 19%
    02:00 +23°C° 0 mm 2 mps 652 mmHg 19%
    03:00 +23°C° 0 mm 2 mps 652 mmHg 19%
    04:00 +21°C° 0 mm 2 mps 651 mmHg 20%
    05:00 +24°C° 0 mm 2 mps 652 mmHg 18%
    06:00 +26°C° 0 mm 2 mps 653 mmHg 16%
    07:00 +28°C° 0 mm 2 mps 654 mmHg 14%
    08:00 +29°C° 0 mm 2 mps 654 mmHg 13%
    09:00 +30°C° 0 mm 2 mps 654 mmHg 13%
    10:00 +31°C° 0 mm 2 mps 654 mmHg 12%
    11:00 +31°C° 0 mm 2 mps 654 mmHg 12%
    12:00 +33°C° 0 mm 3 mps 654 mmHg 12%
    13:00 +34°C° 0 mm 3 mps 653 mmHg 11%
    14:00 +34°C° 0 mm 3 mps 653 mmHg 11%
    15:00 +34°C° 0 mm 4 mps 653 mmHg 11%
    16:00 +34°C° 0 mm 4 mps 653 mmHg 11%
    17:00 +33°C° 0 mm 4 mps 653 mmHg 11%
    18:00 +30°C° 0 mm 3 mps 652 mmHg 12%
    19:00 +29°C° 0 mm 3 mps 652 mmHg 13%
    20:00 +28°C° 0 mm 2 mps 652 mmHg 13%
    21:00 +27°C° 0 mm 2 mps 652 mmHg 14%
    22:00 +26°C° 0 mm 2 mps 652 mmHg 14%
    23:00 +26°C° 0 mm 2 mps 652 mmHg 15%

    22 June, Saturday

    Time Temperature Precipitation Wind Pressure Humidity
    00:00 +25°C° 0 mm 2 mps 652 mmHg 15%
    01:00 +24°C° 0 mm 2 mps 651 mmHg 16%
    02:00 +24°C° 0 mm 2 mps 651 mmHg 17%
    03:00 +23°C° 0 mm 2 mps 651 mmHg 18%
    04:00 +21°C° 0 mm 2 mps 651 mmHg 19%
    05:00 +24°C° 0 mm 2 mps 652 mmHg 17%
    06:00 +26°C° 0 mm 3 mps 653 mmHg 16%
    07:00 +27°C° 0 mm 3 mps 654 mmHg 15%
    08:00 +29°C° 0 mm 3 mps 654 mmHg 14%
    09:00 +30°C° 0 mm 3 mps 654 mmHg 13%
    10:00 +32°C° 0 mm 4 mps 655 mmHg 12%
    11:00 +33°C° 0 mm 4 mps 655 mmHg 12%
    12:00 +33°C° 0 mm 5 mps 654 mmHg 11%
    13:00 +34°C° 0 mm 5 mps 654 mmHg 10%
    14:00 +34°C° 0 mm 6 mps 654 mmHg 10%
    15:00 +34°C° 0 mm 7 mps 654 mmHg 10%
    16:00 +33°C° 0 mm 7 mps 654 mmHg 10%
    17:00 +32°C° 0 mm 6 mps 654 mmHg 11%
    18:00 +30°C° 0 mm 5 mps 654 mmHg 12%
    19:00 +28°C° 0 mm 4 mps 654 mmHg 13%
    20:00 +27°C° 0 mm 4 mps 654 mmHg 15%
    21:00 +26°C° 0 mm 4 mps 654 mmHg 16%
    22:00 +25°C° 0 mm 3 mps 654 mmHg 17%
    23:00 +24°C° 0 mm 3 mps 653 mmHg 18%

    23 June, Sunday

    Time Temperature Precipitation Wind Pressure Humidity
    00:00 +24°C° 0 mm 3 mps 653 mmHg 19%
    01:00 +22°C° 0 mm 3 mps 653 mmHg 20%
    02:00 +21°C° 0 mm 3 mps 653 mmHg 21%
    03:00 +21°C° 0 mm 3 mps 653 mmHg 22%
    04:00 +21°C° 0 mm 3 mps 653 mmHg 22%
    05:00 +22°C° 0 mm 4 mps 653 mmHg 20%
    06:00 +25°C° 0 mm 4 mps 654 mmHg 19%
    07:00 +26°C° 0 mm 5 mps 655 mmHg 17%
    08:00 +27°C° 0 mm 5 mps 655 mmHg 15%
    09:00 +28°C° 0 mm 5 mps 655 mmHg 14%
    10:00 +29°C° 0 mm 6 mps 656 mmHg 13%
    11:00 +30°C° 0 mm 5 mps 655 mmHg 12%
    12:00 +30°C° 0 mm 5 mps 655 mmHg 11%
    13:00 +32°C° 0 mm 5 mps 655 mmHg 10%
    14:00 +32°C° 0 mm 5 mps 655 mmHg 10%
    15:00 +32°C° 0 mm 5 mps 654 mmHg 10%
    16:00 +32°C° 0 mm 4 mps 654 mmHg 10%
    17:00 +30°C° 0 mm 4 mps 654 mmHg 11%
    18:00 +28°C° 0 mm 3 mps 653 mmHg 12%
    19:00 +27°C° 0 mm 2 mps 653 mmHg 13%
    20:00 +26°C° 0 mm 2 mps 653 mmHg 13%
    21:00 +25°C° 0 mm 2 mps 653 mmHg 14%
    22:00 +25°C° 0 mm 2 mps 653 mmHg 15%
    23:00 +24°C° 0 mm 2 mps 653 mmHg 15%
    Show more